Nimes, France

9:46 AM CEST on March 28, 2017 (GMT +0200)
Nimes

Weather History for LFME - May, 2014

Change the Weather History Date:

Friday, May 9, 2014

  Actual Average Record
Temperature  
Mean Temperature 69 °F -  
Max Temperature 87 °F 73 °F - ()
Min Temperature 51 °F 56 °F - ()
Cooling Degree Days 4    
Growing Degree Days 19 (Base 50)    
Moisture  
Dew Point 49 °F    
Average Humidity 44    
Maximum Humidity 88    
Minimum Humidity 17    
Precipitation  
Precipitation 0.00 in 0.07 in - ()
Sea Level Pressure  
Sea Level Pressure 30.06 in    
Wind  
Wind Speed 4 mph ()    
Max Wind Speed 12 mph    
Max Gust Speed -    
Visibility 19.0 miles    
Events      
T = Trace of Precipitation, MM = Missing Value Source: Averaged Metar Reports

Daily Weather History Graph

Daily Weather History Graph

Search for Another Location

Airport or City:

Trip Planner

Search our weather history database for the weather conditions in past years. The results will help you decide how hot, cold, wet, or windy it might be!

Date:

Astronomy

May. 09, 2014 Rise Set
Actual Time 6:23 AM CEST 8:54 PM CEST
Civil Twilight 5:51 AM CEST 9:27 PM CEST
Nautical Twilight 5:10 AM CEST 10:07 PM CEST
Astronomical Twilight 4:25 AM CEST 10:54 PM CEST
Moon 3:26 PM CEST (5/9) 3:29 AM CEST (5/9)
Length of Visible Light 15h 35m
Length of Day
14h 30m
Waxing Gibbous, 71% of the Moon is Illuminated
May 9
Waxing Gibbous
May 14
Full
May 21
Last Quarter
May 28
New
Jun 5
First Quarter

Hourly Weather History & Observations

Time (CEST) Temp. Dew Point Humidity Pressure Visibility Wind Dir Wind Speed Gust Speed Precip Events Conditions
12:00 AM 57 °F 51 °F 74% 30.08 in - ENE 2.3 mph - -  
1:00 AM 56 °F 51 °F 78% 30.08 in - North 3.5 mph - -  
2:00 AM 54 °F 51 °F 86% 30.08 in - NNW 3.5 mph - -  
3:00 AM 53 °F 51 °F 88% 30.07 in - NE 2.3 mph - -  
4:00 AM 52 °F 49 °F 85% 30.07 in - Calm Calm - -  
5:00 AM 52 °F 49 °F 86% 30.07 in - Calm Calm - -  
6:00 AM 53 °F 47 °F 75% 30.07 in 22 mi NW 2.3 mph - -   Scattered Clouds
7:00 AM 60 °F 45 °F 47% 30.09 in - NNW 8.1 mph - -  
8:00 AM 63 °F 45 °F 40% 30.10 in 22 mi NNW 11.5 mph - -   Scattered Clouds
9:00 AM 68 °F 45 °F 32% 30.11 in - NNW 5.8 mph - -  
10:00 AM 72 °F 46 °F 28% 30.10 in - NNW 9.2 mph - -  
11:00 AM 75 °F 46 °F 25% 30.09 in 19 mi NNW 6.9 mph - -  
12:00 PM 78 °F 47 °F 22% 30.09 in - North 6.9 mph - -  
1:00 PM 80 °F 47 °F 21% 30.07 in - WNW 5.8 mph - -  
2:00 PM 81 °F 48 °F 21% 30.06 in 19 mi WNW 5.8 mph - -   Scattered Clouds
3:00 PM 84 °F 49 °F 20% 30.04 in - WNW 4.6 mph - -  
4:00 PM 86 °F 50 °F 19% 30.02 in 19 mi NNW 6.9 mph - -   Scattered Clouds
5:00 PM 86 °F 49 °F 18% 30.00 in 19 mi WNW 5.8 mph - -   Scattered Clouds
6:00 PM 86 °F 48 °F 17% 30.00 in - NW 9.2 mph - -  
7:00 PM 83 °F 53 °F 25% 30.01 in - NE 9.2 mph - -  
8:00 PM 79 °F 53 °F 30% 30.02 in - NE 8.1 mph - -  
9:00 PM 75 °F 52 °F 34% 30.05 in - North 8.1 mph - -  
10:00 PM 72 °F 52 °F 39% 30.08 in - NNW 5.8 mph - -  
11:00 PM 69 °F 52 °F 45% 30.09 in - NNW 3.5 mph - -